User: anonymous   Login
Location: Unspecified
(0.0000°N, 0.0000°E)
Time: 06:10:41
(UTC+00:00)
Language:

Vela 1A - Orbit

View from above orbital plane
View from above orbital plane
View from above satellite
View from above satellite

Ground track
Ground track

The orbit data is extracted from the following two-line orbital elements,

1 00692U 63039C   15148.47546925 -.00000555  00000-0  00000+0 0  9994
2 00692 035.4007 003.3511 5627455 157.4675 000.4537 00.22009192 41650
Epoch (UTC): 28 May 2015 11:24:40
Eccentricity: 0.5627455
inclination: 35.4007°
perigee height: 44289 km
apogee height: 174707 km
right ascension of ascending node: 3.3511°
argument of perigee: 157.4675°
revolutions per day: 0.22009192
mean anomaly at epoch: 0.4537°
orbit number at epoch: 4165

The dashed part of the orbit path shows where the satellite is in the earth's shadow,  

DLR